CAPE
0 1 1 1 0 0 1 0 0 0 0 0 0 0 0 0 0 0 0 0 0 0 0 0 0 0 0 0 0 39 36 55 87 59 115 103 222 548 471 534 574 561 763 1210 1264
3 3 1 0 1 1 0 0 0 0 0 0 0 0 0 0 0 0 0 0 0 0 0 0 0 0 5 0 0 48 34 54 73 77 119 357 549 561 516 565 539 892 1235 1211 1117
1 1 1 1 1 0 2 0 0 0 0 0 0 0 0 0 0 0 0 0 0 0 0 0 0 0 10 20 12 42 33 54 45 98 161 447 420 18 74 222 491 948 1194 1163 1172
1 2 2 2 1 1 1 0 0 0 0 0 0 0 0 0 0 0 0 0 0 0 0 0 0 23 27 7 0 6 0 13 32 138 159 388 485 170 116 283 523 834 1061 1088 1116
1 1 1 1 2 1 1 1 0 0 0 0 0 0 0 0 0 0 0 0 0 0 0 0 3 0 15 8 0 22 1 5 0 78 139 346 502 489 279 413 599 859 946 973 976
1 1 1 0 0 1 1 0 0 0 0 0 0 0 0 0 0 0 0 0 0 0 0 0 0 0 0 3 7 0 1 6 17 25 146 278 750 861 446 442 617 707 728 707 658
1 1 1 1 0 1 0 0 0 0 0 0 0 0 0 0 0 0 0 0 0 0 0 0 0 0 0 1 0 0 4 0 5 7 57 290 357 596 595 482 624 699 649 648 663
2 1 1 1 1 0 0 0 0 0 0 0 0 0 0 0 0 0 0 0 0 0 0 0 0 0 0 0 0 5 5 5 0 0 22 85 226 859 751 647 617 654 640 711 742
1 1 0 0 0 0 0 0 0 0 0 0 0 0 0 0 0 0 0 0 0 0 0 0 0 0 0 0 7 0 0 15 8 0 21 26 189 933 934 736 672 611 651 691 849
1 1 1 0 0 0 0 0 0 0 0 0 0 0 0 0 0 0 0 0 0 0 0 0 0 0 1 10 2 2 13 2 14 9 0 6 150 737 976 865 754 643 671 715 804
1 1 1 0 0 0 0 0 0 0 0 0 0 0 0 0 0 0 0 0 0 0 0 0 1 9 20 17 0 0 7 5 9 0 0 21 103 417 696 705 841 693 612 776 739
0 1 0 0 0 0 0 0 0 0 0 0 0 0 0 0 0 0 0 0 0 0 0 1 0 7 0 0 0 4 12 4 0 0 1 5 15 73 222 519 592 809 698 706 733
1 1 0 0 0 0 0 0 0 0 0 0 0 0 0 0 0 0 0 0 0 0 0 3 3 5 0 0 0 11 16 0 7 0 0 0 0 13 183 232 282 497 920 670 984
1 0 0 0 0 0 0 0 0 0 0 0 0 0 0 0 0 0 0 0 0 0 0 1 32 15 0 6 16 4 0 0 0 0 0 0 8 4 186 271 559 437 660 991 1044
1 1 1 2 0 0 0 0 0 0 0 0 0 0 0 0 0 0 0 0 0 0 0 6 12 5 14 16 2 0 0 0 0 0 13 1 0 6 92 566 650 780 762 868 1311
0 1 1 0 0 0 0 0 0 0 0 0 0 0 0 0 0 0 0 0 0 0 0 0 4 18 7 21 0 0 0 0 0 0 6 27 0 23 0 408 899 1206 1007 833 1010
0 0 0 0 0 0 0 0 0 0 0 0 0 0 0 0 0 0 0 0 0 0 0 0 18 7 18 0 0 0 2 9 31 41 46 3 0 119 7 260 562 1262 1251 979 1093
0 0 0 0 0 0 0 0 0 0 0 0 0 0 0 0 0 0 0 0 0 0 0 0 4 0 0 2 30 0 16 18 16 76 75 55 18 133 287 612 915 1302 1476 1551 1571
0 0 0 0 0 0 0 0 0 0 0 0 0 0 0 0 0 0 0 0 0 0 0 0 33 6 13 20 0 30 14 5 0 41 2 11 1 245 470 843 1334 1440 1712 1873 1992
0 0 0 0 0 0 0 0 0 0 2 0 0 0 0 0 0 0 0 0 0 0 0 3 16 25 11 13 1 3 3 14 5 0 43 47 10 269 147 720 1418 1700 1857 2057 2197
0 0 0 0 0 0 0 0 0 0 0 0 0 0 0 0 0 0 0 0 0 0 0 2 12 17 17 2 2 0 0 0 1 21 71 84 195 65 234 754 1242 1696 1958 1902 1755
0 0 0 0 0 0 0 0 0 2 0 0 0 0 0 0 0 0 0 0 0 0 0 0 4 5 0 0 0 6 0 0 22 72 32 6 146 355 573 647 1030 1693 1848 1865 2045
0 0 0 0 0 0 0 0 0 0 0 0 0 0 0 0 0 0 0 0 0 0 0 0 4 25 24 57 0 0 15 50 5 53 11 60 454 728 716 871 1259 1797 1461 1530 2118
0 0 0 0 0 0 0 0 0 0 0 0 0 0 0 0 0 0 0 0 0 0 0 0 2 143 119 45 7 5 65 0 21 48 30 14 156 1070 1002 1055 1251 1826 1783 1854 1933
0 1 0 0 0 0 0 0 0 0 0 0 0 0 0 0 0 0 0 0 0 0 0 0 10 63 20 57 2 3 52 11 0 8 71 14 133 1017 1159 1161 1470 1671 1907 1496 1213
58 290 243 0 0 0 0 0 0 0 0 0 0 0 0 0 0 0 0 0 0 0 0 0 14 12 10 0 17 10 4 0 23 54 55 38 282 1232 1423 1585 1622 1466 1090 971 694
0 0 56 2 0 0 0 0 0 0 0 2 0 0 0 0 0 0 0 0 0 0 0 2 46 16 16 0 0 0 17 81 116 73 94 77 1064 1265 1175 1191 1183 1052 929 682 383
CIN
-0 -0 -0 -0 -0 -0 -0 -0 -0 -0 -0 -0 -0 -0 -0 -0 -0 -0 -0 -0 -0 -0 -0 -0 -0 -0 -0 -0 -0 -61 -7 -5 -5 -5 -21 -38 -11 -6 -3 -5 -6 -2 -4 -6 -22
-0 -0 -0 -0 -0 -0 -0 -0 -0 -0 -0 -0 -0 -0 -0 -0 -0 -0 -0 -0 -0 -0 -0 -0 -0 -0 -9 -0 -0 -6 -6 -3 -5 -3 -37 -1 -2 -3 -2 -4 -21 -2 -12 -19 -22
-0 -0 -0 -0 -0 -0 -0 -0 -0 -0 -0 -0 -0 -0 -0 -0 -0 -0 -0 -0 -0 -0 -0 -0 -0 -0 -3 -3 -2 -5 -3 -5 -3 -38 -22 -2 -2 -1 -3 -15 -38 -45 -28 -13 -5
-0 -0 -0 -0 -0 -0 -0 -0 -0 -0 -0 -0 -0 -0 -0 -0 -0 -0 -0 -0 -0 -0 -0 -0 -0 -4 -3 -8 -0 -4 -0 -3 -0 -16 -14 -1 -3 -26 -32 -36 -80 -63 -32 -5 -2
-0 -0 -0 -0 -0 -0 -0 -0 -0 -0 -0 -0 -0 -0 -0 -0 -0 -0 -0 -0 -0 -0 -0 -0 -2 -0 -5 -4 -0 -5 -2 -3 -0 -27 -12 -4 -7 -22 -40 -58 -67 -73 -25 -2 -1
-0 -0 -0 -0 -0 -0 -0 -0 -0 -0 -0 -0 -0 -0 -0 -0 -0 -0 -0 -0 -0 -0 -0 -0 -0 -0 -0 -2 -3 -0 -1 -2 -3 -37 -10 -7 -12 -4 -43 -66 -79 -75 -38 -10 -2
-0 -0 -0 -0 -0 -0 -0 -0 -0 -0 -0 -0 -0 -0 -0 -0 -0 -0 -0 -0 -0 -0 -0 -0 -0 -0 -0 -4 -0 -0 -5 -0 -3 -3 -10 -3 -18 -5 -40 -57 -66 -47 -27 -22 -14
-0 -0 -0 -0 -0 -0 -0 -0 -0 -0 -0 -0 -0 -0 -0 -0 -0 -0 -0 -0 -0 -0 -0 -0 -0 -0 -0 -0 -0 -5 -8 -14 -0 -0 -4 -30 -5 -24 -39 -42 -38 -40 -38 -27 -9
-0 -0 -0 -0 -0 -0 -0 -0 -0 -0 -0 -0 -0 -0 -0 -0 -0 -0 -0 -0 -0 -0 -0 -0 -0 -0 -0 -0 -7 -0 -0 -6 -4 -0 -4 -28 -6 -28 -31 -21 -23 -25 -33 -28 -14
-0 -0 -0 -0 -0 -0 -0 -0 -0 -0 -0 -0 -0 -0 -0 -0 -0 -0 -0 -0 -0 -0 -0 -0 -0 -0 -3 -7 -34 -30 -25 -2 -2 -10 -0 -2 -12 -22 -23 -2 -3 -4 -17 -21 -23
-0 -0 -0 -0 -0 -0 -0 -0 -0 -0 -0 -0 -0 -0 -0 -0 -0 -0 -0 -0 -0 -0 -0 -0 -3 -5 -12 -4 -0 -0 -3 -3 -2 -0 -0 -4 -22 -3 -18 -2 -4 -3 -2 -3 -12
-0 -0 -0 -0 -0 -0 -0 -0 -0 -0 -0 -0 -0 -0 -0 -0 -0 -0 -0 -0 -0 -0 -0 -1 -2 -8 -0 -0 -0 -2 -3 -3 -0 -0 -1 -7 -4 -5 -16 -15 -2 -4 -6 -4 -6
-0 -0 -0 -0 -0 -0 -0 -0 -0 -0 -0 -0 -0 -0 -0 -0 -0 -0 -0 -0 -0 -0 -0 -5 -2 -6 -0 -0 -1 -4 -7 -4 -3 -0 -0 -0 -0 -4 -29 -26 -19 -6 -4 -4 -18
-0 -0 -0 -0 -0 -0 -0 -0 -0 -0 -0 -0 -0 -0 -0 -0 -0 -0 -0 -0 -0 -0 -0 -2 -9 -6 -0 -5 -5 -1 -0 -0 -0 -0 -0 -0 -19 -2 -16 -23 -37 -28 -4 -6 -9
-0 -0 -0 -0 -0 -0 -0 -0 -0 -0 -0 -0 -0 -0 -0 -0 -0 -0 -0 -0 -0 -0 -0 -4 -6 -4 -2 -3 -5 -1 -0 -0 -0 -0 -3 -8 -0 -38 -10 -4 -18 -3 -4 -4 -6
-0 -0 -0 -0 -0 -0 -0 -0 -0 -0 -0 -0 -0 -0 -0 -0 -0 -0 -0 -0 -0 -0 -0 -1 -4 -6 -7 -10 -0 -0 -0 -0 -0 -0 -7 -17 -0 -95 -11 -5 -33 -34 -23 -16 -5
-0 -0 -0 -0 -0 -0 -0 -0 -0 -0 -0 -0 -0 -0 -0 -0 -0 -0 -0 -0 -0 -0 -0 -0 -6 -6 -6 -0 -0 -0 -8 -7 -8 -18 -16 -114 -0 -97 -18 -20 -12 -33 -30 -26 -7
-0 -0 -0 -0 -0 -0 -0 -0 -0 -0 -0 -0 -0 -0 -0 -0 -0 -0 -0 -0 -0 -0 -0 -0 -2 -0 -0 -2 -5 -0 -8 -22 -73 -13 -12 -7 -6 -72 -31 -28 -37 -41 -48 -49 -30
-0 -0 -0 -0 -0 -0 -0 -0 -0 -0 -0 -0 -0 -0 -0 -0 -0 -0 -0 -0 -0 -0 -0 -0 -10 -7 -11 -5 -1 -31 -5 -8 -0 -6 -11 -27 -21 -31 -4 -20 -37 -37 -46 -25 -12
-0 -0 -0 -0 -0 -0 -0 -0 -0 -0 -7 -0 -0 -0 -0 -0 -0 -0 -0 -0 -0 -0 -0 -4 -5 -7 -6 -5 -1 -4 -13 -5 -4 -0 -5 -9 -21 -20 -42 -12 -36 -38 -29 -5 -4
-0 -0 -0 -0 -0 -0 -0 -0 -0 -0 -0 -0 -0 -0 -0 -0 -0 -0 -0 -0 -0 -0 -0 -2 -6 -5 -4 -2 -3 -0 -0 -0 -10 -18 -10 -16 -6 -54 -47 -3 -15 -11 -19 -16 -20
-0 -0 -0 -0 -0 -0 -0 -0 -0 -1 -0 -0 -0 -0 -0 -0 -0 -0 -0 -0 -0 -0 -0 -0 -8 -5 -0 -0 -0 -26 -0 -2 -6 -17 -103 -87 -50 -56 -32 -5 -2 -3 -5 -3 -4
-0 -0 -0 -0 -0 -0 -0 -0 -0 -0 -0 -0 -0 -0 -0 -0 -0 -0 -0 -0 -0 -0 -0 -2 -60 -12 -10 -15 -0 -0 -8 -7 -71 -10 -18 -63 -44 -31 -24 -19 -14 -3 -16 -56 -1
-0 -0 -0 -0 -0 -0 -0 -0 -0 -0 -0 -0 -0 -0 -0 -0 -0 -0 -0 -0 -0 -0 -0 -0 -8 -12 -29 -27 -5 -7 -9 -0 -9 -10 -33 -85 -80 -1 -22 -52 -24 -1 -3 -7 -4
-0 -2 -0 -0 -0 -0 -0 -0 -0 -0 -0 -0 -0 -0 -0 -0 -0 -0 -0 -0 -0 -0 -0 -0 -56 -61 -86 -28 -7 -15 -10 -1 -0 -11 -17 -22 -4 -14 -35 -20 -23 -9 -1 -23 -23
-24 -4 -5 -0 -0 -0 -0 -0 -0 -0 -0 -0 -0 -0 -0 -0 -0 -0 -0 -0 -0 -0 -0 -0 -12 -16 -6 -3 -9 -13 -4 -0 -15 -9 -22 -23 -7 -42 -66 -58 -29 -20 -45 -52 -91
-0 -0 -93 -20 -0 -0 -0 -0 -0 -0 -0 -17 -0 -1 -0 -0 -0 -0 -0 -0 -0 -0 -0 -46 -25 -28 -5 -2 -0 -0 -4 -7 -6 -24 -42 -21 -35 -74 -78 -75 -72 -76 -79 -87 -177
Wind_Speed
21 22 22 22 23 23 23 23 23 23 22 23 22 22 21 22 22 19 21 19 19 16 15 12 12 11 15 20 17 17 26 28 30 31 28 26 26 28 26 26 23 22 24 26 27
22 23 23 24 24 24 23 23 23 23 23 23 23 22 22 22 22 23 11 22 21 19 16 12 9 9 21 20 15 22 26 24 26 27 29 26 27 27 25 27 27 27 27 28 28
23 24 24 25 25 24 24 24 24 23 24 24 24 23 21 21 23 7 14 24 23 21 18 13 11 12 22 18 17 22 25 24 20 18 23 27 28 9 26 29 27 28 28 27 28
24 24 25 25 25 26 25 24 24 24 24 24 24 23 23 21 14 11 15 24 24 23 19 15 13 13 17 22 20 23 22 21 22 23 24 25 27 24 22 29 30 29 28 27 26
24 25 25 26 26 26 26 25 25 24 24 24 24 23 20 18 21 10 15 13 23 23 21 16 13 13 19 20 21 21 22 21 21 22 21 24 22 26 27 28 29 29 28 27 25
24 25 25 26 27 27 26 26 25 25 24 24 24 24 18 22 14 9 11 4 27 23 22 19 15 13 14 17 14 20 18 21 21 21 21 22 22 23 25 26 27 27 27 26 26
25 25 25 26 26 27 27 26 26 25 24 24 23 21 24 18 16 8 7 10 28 28 24 20 19 16 13 16 19 18 20 20 18 18 18 16 20 20 22 22 24 25 25 25 25
25 25 26 26 27 27 27 26 26 25 24 23 22 22 23 16 20 19 9 15 22 28 25 21 21 19 16 16 17 16 16 17 17 15 15 17 16 18 20 20 21 22 23 23 23
26 26 27 27 27 27 27 26 26 24 22 21 20 19 25 13 15 12 1 14 6 28 26 21 23 21 16 16 16 15 13 15 16 15 13 13 16 15 17 17 18 20 21 21 21
27 27 27 27 27 26 26 24 20 19 19 20 24 22 25 20 10 7 10 20 8 4 14 17 12 17 14 18 3 8 14 14 13 15 14 14 14 14 14 14 15 17 19 19 19
28 28 28 28 28 26 23 17 17 19 20 21 16 20 11 11 13 16 8 11 17 11 6 7 21 21 17 16 16 14 15 12 13 14 15 15 13 12 14 12 12 14 16 17 18
29 29 29 29 28 26 21 19 20 20 23 24 27 26 20 21 19 13 6 11 12 14 7 7 24 26 11 14 18 19 9 12 13 12 13 14 12 13 11 10 9 12 14 16 17
29 29 30 30 29 20 19 22 19 21 23 21 22 25 21 18 22 13 10 12 15 20 11 20 5 12 11 4 6 14 6 12 13 13 14 10 8 9 10 9 8 10 12 16 18
29 29 30 30 20 18 19 18 19 19 23 17 18 23 19 19 26 12 11 15 21 23 16 11 28 8 7 19 11 20 14 12 11 9 8 6 13 8 11 11 10 10 11 17 17
29 29 29 25 23 17 16 16 19 17 23 9 11 8 14 17 14 22 9 25 25 22 22 15 18 7 11 12 17 15 14 14 15 5 5 8 8 8 7 11 13 11 10 13 16
29 29 29 17 16 22 18 17 17 19 24 14 13 17 14 20 15 9 16 29 27 25 34 26 26 10 7 16 13 18 9 9 6 6 10 7 7 15 12 17 14 12 9 7 12
31 30 27 23 15 15 15 15 19 24 12 16 17 14 16 18 18 11 13 16 18 20 16 22 13 15 14 12 6 11 3 10 10 17 16 4 9 13 6 14 14 13 12 12 10
32 30 15 9 16 18 15 18 26 22 19 14 16 15 21 15 19 17 14 17 29 24 18 13 13 10 6 20 5 1 28 26 23 22 10 7 16 10 17 15 13 13 13 13 11
30 16 15 16 14 14 15 23 23 19 22 17 17 20 21 18 21 20 18 18 13 37 35 11 20 9 11 12 28 15 16 27 27 13 17 10 20 11 11 13 12 12 12 12 12
24 19 12 11 5 13 20 30 26 20 19 22 21 24 23 18 23 20 18 19 16 33 39 16 24 9 20 14 26 29 25 9 7 18 15 13 20 9 3 8 13 12 12 12 11
19 14 11 7 7 16 20 31 25 20 23 23 27 22 31 22 24 21 19 18 13 15 38 26 13 4 8 10 12 7 24 25 25 27 13 4 10 18 10 13 12 11 10 10 10
20 15 11 2 10 23 28 34 26 22 22 22 23 24 33 27 27 29 27 24 22 13 27 32 11 5 4 18 31 33 2 21 15 14 27 30 16 14 19 15 10 9 9 9 9
18 13 12 10 21 24 33 36 34 30 27 24 25 28 26 34 29 32 27 25 11 24 23 30 21 1 3 1 16 23 22 26 15 12 5 5 9 10 13 13 12 9 7 10 9
20 15 13 20 34 31 29 35 35 33 34 32 30 29 30 32 26 30 25 20 15 27 21 34 34 2 4 20 13 22 5 22 26 21 15 17 6 13 16 15 13 9 9 8 8
18 21 15 17 34 33 31 28 34 32 29 25 33 33 31 29 26 22 27 12 14 14 14 37 29 5 12 21 6 22 25 14 21 25 25 26 22 17 19 17 12 9 9 9 10
21 22 20 28 20 33 34 32 30 28 28 28 30 29 33 30 24 20 17 13 13 12 15 37 24 22 10 17 7 2 14 16 19 21 23 25 21 17 17 15 11 10 10 9 10
20 25 24 25 29 30 36 35 29 28 30 30 26 28 32 33 23 21 23 10 14 13 13 19 15 18 21 22 20 22 15 15 17 21 22 25 17 15 14 13 11 10 10 10 12
Wind_Direction
297 295 293 292 289 286 285 283 279 275 273 269 268 270 264 260 249 178 180 192 186 201 170 174 167 142 131 121 124 131 65 48 50 51 63 49 39 67 80 62 93 101 97 104 110
299 298 295 292 289 287 285 284 281 276 272 269 265 267 261 265 228 198 232 195 195 186 172 188 198 175 107 114 131 85 52 62 36 50 51 39 44 80 89 67 73 69 78 103 113
302 300 298 295 292 289 286 284 281 277 272 269 266 266 262 266 225 221 284 196 186 174 179 197 183 159 102 121 116 89 68 65 29 12 37 50 53 3 84 71 83 94 97 109 116
304 302 298 297 294 291 288 284 282 277 274 270 270 270 263 245 271 317 278 205 168 176 183 189 172 160 123 65 100 70 77 54 62 76 60 48 50 26 25 56 83 92 100 107 117
306 303 301 298 295 292 288 285 282 277 274 273 273 274 274 273 261 349 271 265 151 168 179 190 181 182 69 80 92 74 89 70 68 93 50 85 35 50 46 67 80 89 98 104 116
308 306 303 299 296 292 288 284 281 277 275 274 274 276 276 265 299 341 290 313 178 161 176 178 250 216 150 99 83 94 133 83 83 77 76 73 74 63 64 75 78 91 94 104 108
310 307 304 302 298 292 288 283 279 276 277 277 278 281 267 274 287 318 309 283 215 199 199 193 232 202 305 90 104 117 106 101 86 78 75 127 76 57 85 82 83 88 98 98 107
311 308 305 302 298 293 286 280 276 275 275 279 282 276 266 284 274 267 289 275 245 220 224 256 232 207 174 162 123 131 132 88 74 88 86 63 110 68 90 87 92 94 97 106 106
307 306 304 302 297 292 284 276 272 273 275 279 280 273 266 291 273 276 150 273 276 228 234 260 230 204 155 143 137 116 117 63 78 88 133 71 92 70 95 90 97 105 106 112 113
308 307 305 303 299 291 282 277 283 281 278 275 272 268 267 262 264 273 279 257 271 260 263 272 301 168 143 173 33 84 25 59 73 74 117 99 68 81 95 97 96 109 113 120 115
308 307 306 302 299 294 286 296 289 282 265 260 277 268 283 277 274 264 266 267 260 258 212 155 174 179 172 298 278 314 333 30 36 39 131 131 89 101 100 96 100 114 119 127 126
308 307 306 302 297 291 289 283 293 286 273 261 259 259 270 268 259 251 223 259 252 250 206 193 187 234 312 309 275 267 55 24 31 88 148 92 121 77 74 95 110 123 124 132 131
307 307 304 301 293 299 289 279 289 283 272 264 257 258 260 260 256 239 227 248 256 251 194 187 240 292 309 9 82 153 284 12 50 97 153 102 143 92 50 61 89 132 137 139 139
305 305 304 299 307 307 292 286 279 283 271 259 254 257 249 254 252 242 238 248 258 253 247 240 246 280 299 281 303 275 308 345 19 102 29 115 29 107 86 60 71 111 135 146 145
298 297 297 300 294 297 304 287 276 272 266 240 238 246 243 240 273 246 220 245 253 256 247 244 252 269 277 294 289 324 298 313 338 92 103 69 63 79 85 71 63 76 111 145 152
292 289 290 310 302 274 288 280 268 259 263 260 252 242 232 240 254 225 244 242 249 256 244 250 216 271 237 289 294 296 330 354 93 97 1 5 72 341 294 44 46 32 42 111 152
287 282 283 282 304 295 280 269 257 251 271 264 247 227 230 239 246 221 217 233 245 251 246 252 232 264 263 285 319 298 306 328 331 320 330 279 357 0 326 11 33 34 36 53 75
286 280 312 309 293 275 268 257 253 250 270 277 247 231 233 229 240 241 231 239 237 248 254 228 216 191 232 263 304 302 222 282 303 304 356 26 335 1 4 31 22 32 37 41 58
283 315 305 300 280 271 260 250 247 268 261 261 247 236 234 232 244 242 243 243 229 228 236 198 201 175 179 166 252 295 300 256 284 317 310 335 315 75 65 37 30 38 41 45 47
293 294 313 306 284 262 257 246 250 263 261 255 243 238 233 227 241 241 242 249 244 196 219 251 244 185 171 274 256 253 254 314 348 304 308 324 308 330 345 64 57 57 60 52 43
295 306 315 309 275 258 254 242 257 258 253 251 239 244 234 234 238 243 247 250 244 237 221 246 246 227 185 179 172 258 274 269 255 247 326 359 333 342 346 72 49 51 59 58 49
284 293 307 299 267 254 248 236 255 252 247 251 254 248 232 235 238 238 241 244 243 241 235 227 192 221 223 169 189 228 267 181 303 310 293 282 316 343 332 6 42 48 50 40 33
279 305 294 265 261 254 239 237 240 240 243 248 246 242 244 233 237 235 241 242 243 234 233 223 242 219 147 293 263 258 258 239 320 169 34 161 333 4 10 21 15 29 25 1 1
275 284 291 260 235 250 243 233 234 237 239 244 244 244 239 234 237 236 242 247 254 168 227 216 207 206 291 283 148 170 276 264 267 289 341 339 101 33 21 23 24 29 15 11 3
271 261 285 266 234 235 237 237 226 230 240 245 239 237 236 236 235 241 241 242 244 203 201 216 236 304 278 249 331 263 220 296 287 292 287 303 338 354 349 5 25 45 32 15 8
265 264 275 245 261 233 231 226 229 235 240 240 238 236 229 233 235 248 241 243 200 191 184 216 240 250 278 251 285 303 308 308 305 303 304 301 326 346 1 8 21 37 42 25 11
279 261 262 252 240 234 223 223 231 237 240 237 237 236 229 229 242 251 245 241 173 179 183 227 261 258 256 260 273 276 294 299 307 311 307 306 333 350 1 11 24 30 33 26 11